Terminal Aerodrome Forecast
Issued by NWS

Home | Current Version | Previous Version | Text Only | Print | Product List | Glossary On
Versions: 1 2 3 4 5 6 7 8 9 10 11 12 13 14 15 16 17 18 19 20 21 22 23 24 25 26 27 28 29 30 31 32 33 34 35 36 37 38
000
FTUS45 KGJT 252204 AAC
TAFTEX
TAF AMD
KTEX 252204Z 2522/2618 29004KT P6SM -SN VCTS BKN022 BKN026 OVC035CB
      TEMPO 2522/2524 -TSRA BKN040CB
     FM260200 31004KT P6SM VCSH BKN025
     FM260800 33005KT P6SM BKN035
     FM261000 34005KT P6SM VCSH SCT040
     FM261200 01005KT P6SM SCT035=

USA.gov is the U.S. government's official web portal to all federal, state and local government web resources and services.